Tracking 20083 objects as of 12-Dec-2019
HD Live streaming from Space Station
objects crossing your sky now

FENGYUN 2D DEB

Track FENGYUN 2D DEB now!


NORAD ID: 33458
Int'l Code: 2006-053D
Perigee: 35,548.3 km
Apogee: 36,051.1 km
Inclination: 7.5 °
Period: 1,436.4 minutes
Semi major axis: 42170 km
RCS: 0.003 m2 (small)
Launch date: December 8, 2006
Source: People's Republic of China (PRC)
Launch site: Xichang Space Center, China (XSC)

Note: This is SATELLITE DEBRIS
aabbcc
Your satellite tracking list
Your tracking list is empty




NASA's NSSDC Master Catalog

Two Line Element Set (TLE):
1 33458U 06053D   19344.69914184 -.00000008  00000-0  00000+0 0  9998
2 33458   7.4676  53.2190 0059624 337.8027   7.7137  1.00250516 41450
Source of the keplerian elements: AFSPC